Location: Cannifist
(18.2333°N, 63.0167°W)
Time: 01:19:45
(UTC+00:00)

N. Korean satellite - Pass Details

Date: 18 June 2021
Orbit: 451 x 498 km, 97.2° (Epoch: 02 August)

Event Time Altitude Azimuth Distance (km) Brightness Sun altitude
Rises 08:40:41 0° 31° (NNE) 2,553 11.4 -12.6°
Reaches altitude 10° 08:43:05 10° 47° (NE) 1,678 10.7 -12.1°
Maximum altitude 08:45:55 22° 98° (E) 1,132 9.1 -11.5°
Drops below altitude 10° 08:48:45 10° 150° (SSE) 1,687 9.3 -10.9°
Sets 08:51:11 0° 166° (SSE) 2,571 10.1 -10.4°
